Regional Weather Roundup
Issued by NWS

Home | Current Version | Previous Version | Graphics & Text | Print | Product List | Glossary Off
Versions: 1 2 3 4 5 6 7 8 9 10 11 12 13 14 15 16 17 18 19 20 21 22 23 24 25 26 27 28 29 30 31 32 33 34 35 36 37 38 39 40 41 42 43 44 45 46 47 48 49 50

830
ASUS43 KMKX 211459
RWRWI

WISCONSIN REGIONAL WEATHER ROUNDUP
NATIONAL WEATHER SERVICE MILWAUKEE/SULLIVAN WI
900 AM CST SAT JAN 21 2017

NOTE: "FAIR" INDICATES FEW OR NO CLOUDS BELOW 12,000 FEET WITH NO
SIGNIFICANT WEATHER AND/OR OBSTRUCTIONS TO VISIBILITY.

WIZ001-002-006>008-014>016-023>028-211600-
NORTHWEST WISCONSIN

CITY           SKY/WX    TMP DP  RH WIND       PRES   REMARKS
SUPERIOR ARPT  CLOUDY    34  34 100 E7        29.50F WCI  28
ASHLAND        MIX PCPN  34  33  96 E5        29.53S FOG     WCI  30
HAYWARD        LGT RAIN  35  33  92 E5        29.48F WCI  31
SIREN          CLOUDY    34  34  99 CALM      29.46F FOG
CUMBERLAND     LGT RAIN  32  32 100 E9        29.45F WCI  24
RICE LAKE      CLOUDY    34  34 100 E9        29.47S FOG     WCI  27
CHETEK         DRIZZLE   34  34 100 E5        29.45F WCI  30
LADYSMITH      CLOUDY    35  35  99 E7        29.49S FOG     WCI  29
EAU CLAIRE     LGT RAIN  34  34 100 NE6       29.44S FOG     WCI  29
MENOMONIE        N/A    N/A N/A N/A MISG        N/A
NEW RICHMOND   DRIZZLE   34  34 100 E5        29.44S WCI  30
OSCEOLA        CLOUDY    35  35 100 E7        29.47S FOG     WCI  29
$$

WIZ003>005-009-010-017-018-211600-
NORTH CENTRAL WISCONSIN

CITY           SKY/WX    TMP DP  RH WIND       PRES   REMARKS
MANITOWISH WTR CLOUDY    33  33 100 E3        29.50F
ARBOR VITAE    CLOUDY    36  35  96 SE7       29.50F FOG     WCI  31
WOODRUFF       CLOUDY    36  35  96 SE7       29.50F FOG     WCI  31
RHINELANDER    LGT RAIN  34  34 100 E8        29.51S FOG     WCI  27
EAGLE RIVER    CLOUDY    33  33 100 SE7       29.52R FOG     WCI  27
LAND O LAKES   CLOUDY    33  33  99 SE3       29.53F FOG
PHILLIPS       CLOUDY    33  33 100 E5        29.48F WCI  28
TOMAHAWK       DRIZZLE   33  32  96 CALM      29.50F
MEDFORD        LGT RAIN  33  33  99 E8        29.46S WCI  26
MERRILL        LGT RAIN  34  34 100 E8          N/A  VSB 3/4 WCI  27
$$

WIZ029-030-035-036-043>047-211600-
CENTRAL WISCONSIN

CITY           SKY/WX    TMP DP  RH WIND       PRES   REMARKS
WAUSAU         LGT RAIN  33  33 100 E7        29.48S VSB 3/4 WCI  27
MOSINEE        FOG       34  34 100 E8        29.50S VSB 3/8 WCI  27
MARSHFIELD     LGT RAIN  34  33  96 E14       29.45F VSB 1/4 WCI  25
STEVENS POINT  FOG       33  33 100 E7        29.50S VSB 1/2 WCI  26
WAUPACA        FOG       37  36  96 CALM      29.52S VSB 1/2
WAUTOMA        FOG       35  35 100 NE7       29.50F VSB 1/4 WCI  29
WISC RAPIDS    FOG       35  35 100 E10       29.48S VSB 1/4 WCI  27
CAMP DOUGLAS   NOT AVBL
$$

WIZ011>013-019>022-031-037>040-048>050-211600-
NORTHEAST WISCONSIN

CITY           SKY/WX    TMP DP  RH WIND       PRES   REMARKS
ANTIGO         FOG       32  32 100 E12       29.51F VSB 1/2 WCI  23
SHAWANO        CLOUDY    35  34  96 NE8       29.54F FOG     WCI  28
OCONTO         CLOUDY    34  34  99 E6        29.57S WCI  29
STURGEON BAY   FOG       36  36 100 E8        29.56F VSB 1/2 WCI  30
GREEN BAY      FOG       36  36 100 NE8       29.54F VSB 1/4 WCI  30
MANITOWOC      NOT AVBL
APPLETON       FOG       36  36 100 E6        29.51F VSB 1/8 WCI  31
CLINTONVILLE   FOG       34  34 100 E7        29.53F VSB 3/4 WCI  28
OSHKOSH        FOG       35  35 100 E3        29.50F VSB<1/4
$$

WIZ032>034-041-042-053>061-211600-
SOUTHWEST WISCONSIN

CITY           SKY/WX    TMP DP  RH WIND       PRES   REMARKS
LA CROSSE      LGT RAIN  39  36  89 SE5       29.43S
SPARTA         CLOUDY    34  34 100 E5        29.46S FOG     WCI  30
VIROQUA        CLOUDY    36  36 100 E9        29.42S VSB 1/4 WCI  29
BOSCOBEL       FOG       38  37  97 NE3       29.45S VSB 1/2
PRAIRIE DU CHI CLOUDY    37  36  96 CALM      29.43S FOG
PLATTEVILLE    CLOUDY    39  39 100 E9        29.44S VSB<1/4 WCI  33
$$

WIZ056-057-062-063-064-067-068-211600-
SOUTH CENTRAL WISCONSIN

CITY           SKY/WX    TMP DP  RH WIND       PRES   REMARKS
REEDSBURG      FOG       35  35 100 NE5       29.45F VSB 1/4 WCI  31
BARABOO/DELLS  FOG       35  35  99 E3        29.46S VSB<1/4
LONE ROCK      FOG       38  38 100 SE3       29.46S VSB 1/2
MINERAL POINT  FOG       41  41 100 E6        29.44S VSB<1/4
MADISON        DRZL/FOG  40  40 100 E10       29.47F VSB 1/2 WCI  33
MIDDLETON      CLOUDY    38  38 100 NE3       29.46F VSB<1/4
WATERTOWN      FOG       40  40 100 E6        29.48S VSB 1/2
MONROE         FOG       43  41  93 S6        29.45S VSB<1/4
JANESVILLE     FOG       45  45 100 SE7       29.47F VSB 1/4
$$

WIZ051-052-058>065-066-070>072-211600-
SOUTHEAST WISCONSIN

CITY           SKY/WX    TMP DP  RH WIND       PRES   REMARKS
MILWAUKEE      FOG       45  43  93 SE7       29.51F VSB 1
WAUKESHA       FOG       39  39 100 E5        29.51F VSB 1/8
MILWAUKEE/TIMM FOG       39  37  93 CALM      29.52F VSB 1/4
RACINE         FOG       43  41  93 S9        29.53F VSB 1/2
KENOSHA        CLOUDY    46  45  96 SE7       29.52S FOG
FOND DU LAC    CLOUDY    39  36  89 SE8       29.50S FOG     WCI  33
SHEBOYGAN      FOG       36  36 100 NE5       29.52F VSB<1/4 WCI  32
WEST BEND      FOG       36  36 100 CALM      29.51F VSB<1/4
JUNEAU         FOG       39  38  99 E9        29.50S VSB 1/4 WCI  32
$$

LSZ147-162-211600-
LAKE SUPERIOR

STATION/POSITION TIME  TEMP    WIND        PRES    WAVE
                       AIR SEA DIR/SP/G            HT/PER
                 (UTC) (F)     (DEG/KT/KT) (MB)    (FT/S)
DEVILS ISLAND    1400   35      70/  8/  8 1000.9F
PORT WING        1430   34      70/  2/  2 1000.0S
SAXON HARBOR     1430   35      CALM  /  3 1000.3R
$$

LMZ867-665-643>646-211600-
LAKE MICHIGAN

STATION/POSITION TIME  TEMP    WIND        PRES    WAVE
                       AIR SEA DIR/SP/G            HT/PER
                 (UTC) (F)     (DEG/KT/KT) (MB)    (FT/S)
NORTHPORT PIER   1440   34     120/  3/  5 1002.4S
SISTER BAY       1405   36     140/  5/  8   N/A
ALGOMA LAKESHORE 1239           70/  8/  9   N/A
KEWAUNEE LAKESHO 1430   36      50/  2/  5 1000.9F
SHEBOYGAN LAKESH 1400   39     140/  5/  6 1000.5F
PORT WASHINGTON  1430   38      40/  6/  7 1001.0S
KENOSHA   LAKESH 1400   38     170/  9/ 10 1000.7
$$

TC  - TEMPERATURE IN CELSIUS
VSB - VISIBILITY IN STATUTE MILES
WCI - WIND CHILL INDEX
HX  - HEAT INDEX





USA.gov is the U.S. government's official web portal to all federal, state and local government web resources and services.